QPF
0.00 0.00 0.00 0.00 0.00 0.00 0.00 0.00 0.00 0.00 0.00 0.00 0.00 0.00 0.00 0.00 0.00 0.00 0.00 0.00 0.01 0.01 0.01 0.02 0.02 0.03 0.02 0.02 0.01 0.01 0.02 0.03 0.03 0.02 0.02 0.02 0.02 0.05 0.07 0.08 0.08 0.08 0.08 0.08
0.01 0.00 0.00 0.00 0.00 0.00 0.00 0.00 0.00 0.00 0.00 0.00 0.00 0.00 0.00 0.00 0.00 0.00 0.00 0.00 0.00 0.01 0.01 0.01 0.02 0.03 0.02 0.01 0.00 0.01 0.01 0.02 0.02 0.02 0.01 0.01 0.03 0.05 0.06 0.06 0.06 0.07 0.07 0.06
0.01 0.00 0.00 0.00 0.00 0.00 0.00 0.00 0.00 0.00 0.00 0.00 0.00 0.00 0.00 0.00 0.00 0.00 0.00 0.00 0.00 0.00 0.00 0.00 0.01 0.02 0.02 0.02 0.01 0.01 0.02 0.01 0.01 0.01 0.02 0.02 0.03 0.04 0.06 0.05 0.04 0.03 0.03 0.03
0.00 0.00 0.00 0.00 0.00 0.00 0.00 0.00 0.00 0.00 0.00 0.00 0.00 0.00 0.00 0.00 0.00 0.00 0.00 0.00 0.00 0.00 0.00 0.01 0.01 0.01 0.01 0.02 0.01 0.01 0.02 0.01 0.02 0.01 0.01 0.02 0.03 0.04 0.06 0.07 0.05 0.05 0.04 0.03
0.01 0.01 0.01 0.00 0.00 0.00 0.00 0.00 0.00 0.00 0.00 0.00 0.00 0.00 0.00 0.00 0.00 0.00 0.00 0.00 0.00 0.00 0.01 0.01 0.01 0.01 0.01 0.02 0.02 0.01 0.02 0.01 0.02 0.02 0.02 0.02 0.03 0.04 0.04 0.05 0.07 0.07 0.08 0.07
0.00 0.00 0.00 0.00 0.00 0.00 0.00 0.00 0.00 0.00 0.01 0.00 0.00 0.00 0.00 0.00 0.00 0.00 0.00 0.00 0.00 0.00 0.00 0.01 0.02 0.02 0.02 0.02 0.02 0.01 0.01 0.01 0.01 0.02 0.02 0.03 0.03 0.03 0.03 0.04 0.05 0.08 0.10 0.11
0.01 0.01 0.00 0.00 0.00 0.00 0.00 0.00 0.01 0.01 0.01 0.00 0.00 0.00 0.00 0.00 0.00 0.00 0.00 0.00 0.00 0.00 0.00 0.00 0.02 0.03 0.02 0.01 0.02 0.01 0.01 0.01 0.01 0.02 0.03 0.03 0.02 0.03 0.04 0.06 0.05 0.06 0.09 0.11
0.01 0.02 0.01 0.01 0.00 0.00 0.00 0.00 0.01 0.01 0.01 0.00 0.00 0.00 0.00 0.00 0.00 0.00 0.00 0.00 0.00 0.00 0.00 0.00 0.01 0.03 0.02 0.01 0.01 0.01 0.01 0.01 0.01 0.02 0.02 0.02 0.01 0.02 0.05 0.07 0.05 0.05 0.06 0.08
0.00 0.01 0.01 0.00 0.00 0.00 0.00 0.00 0.00 0.00 0.00 0.00 0.00 0.00 0.00 0.00 0.00 0.00 0.00 0.00 0.00 0.00 0.00 0.00 0.01 0.02 0.02 0.01 0.01 0.01 0.00 0.00 0.01 0.01 0.02 0.02 0.01 0.02 0.05 0.06 0.04 0.02 0.02 0.03
0.00 0.00 0.00 0.00 0.00 0.00 0.00 0.00 0.00 0.01 0.00 0.00 0.00 0.00 0.00 0.00 0.00 0.00 0.01 0.01 0.00 0.00 0.00 0.00 0.00 0.01 0.02 0.01 0.01 0.01 0.01 0.00 0.00 0.01 0.01 0.01 0.01 0.03 0.03 0.03 0.02 0.01 0.01 0.02
0.00 0.00 0.00 0.00 0.00 0.00 0.00 0.00 0.00 0.00 0.00 0.00 0.00 0.00 0.00 0.00 0.00 0.01 0.01 0.01 0.00 0.00 0.00 0.00 0.00 0.00 0.01 0.01 0.01 0.01 0.01 0.01 0.01 0.01 0.01 0.02 0.02 0.02 0.02 0.02 0.01 0.01 0.01 0.01
0.00 0.00 0.00 0.00 0.00 0.00 0.00 0.00 0.00 0.00 0.00 0.01 0.00 0.01 0.00 0.00 0.01 0.01 0.01 0.00 0.00 0.00 0.00 0.00 0.00 0.00 0.00 0.01 0.01 0.01 0.01 0.02 0.02 0.01 0.01 0.02 0.02 0.01 0.02 0.01 0.01 0.01 0.01 0.01
0.00 0.00 0.00 0.00 0.00 0.00 0.00 0.00 0.00 0.00 0.01 0.01 0.01 0.01 0.00 0.00 0.01 0.01 0.00 0.00 0.00 0.00 0.00 0.00 0.00 0.00 0.00 0.00 0.01 0.01 0.01 0.01 0.02 0.02 0.01 0.02 0.02 0.01 0.01 0.01 0.01 0.01 0.01 0.01
0.00 0.00 0.00 0.00 0.00 0.00 0.00 0.00 0.00 0.00 0.01 0.01 0.01 0.01 0.00 0.01 0.00 0.01 0.00 0.00 0.00 0.00 0.00 0.00 0.00 0.00 0.00 0.00 0.00 0.01 0.01 0.01 0.02 0.03 0.02 0.02 0.02 0.01 0.01 0.01 0.01 0.02 0.01 0.01
0.00 0.00 0.00 0.00 0.00 0.00 0.00 0.00 0.00 0.00 0.00 0.00 0.00 0.00 0.00 0.01 0.00 0.00 0.00 0.00 0.00 0.00 0.00 0.00 0.00 0.00 0.00 0.00 0.00 0.01 0.01 0.01 0.01 0.02 0.02 0.02 0.03 0.02 0.01 0.02 0.02 0.02 0.01 0.02
0.00 0.00 0.00 0.00 0.00 0.00 0.00 0.00 0.00 0.00 0.00 0.00 0.00 0.00 0.00 0.00 0.00 0.00 0.00 0.00 0.00 0.00 0.00 0.00 0.00 0.00 0.00 0.00 0.00 0.00 0.01 0.01 0.01 0.02 0.02 0.02 0.02 0.02 0.02 0.03 0.03 0.04 0.04 0.03
0.00 0.00 0.00 0.00 0.00 0.00 0.00 0.00 0.00 0.00 0.00 0.00 0.01 0.01 0.00 0.00 0.00 0.00 0.00 0.00 0.00 0.00 0.00 0.00 0.00 0.00 0.00 0.00 0.00 0.01 0.01 0.01 0.02 0.02 0.03 0.03 0.03 0.03 0.04 0.04 0.04 0.04 0.04 0.03
0.00 0.00 0.00 0.00 0.00 0.00 0.00 0.00 0.00 0.00 0.00 0.00 0.00 0.00 0.00 0.00 0.00 0.00 0.00 0.00 0.00 0.00 0.00 0.00 0.00 0.00 0.00 0.01 0.01 0.01 0.01 0.02 0.03 0.03 0.03 0.03 0.05 0.05 0.04 0.04 0.04 0.03 0.03 0.03
0.00 0.00 0.00 0.00 0.00 0.00 0.00 0.00 0.00 0.00 0.00 0.00 0.00 0.00 0.00 0.00 0.00 0.00 0.00 0.00 0.00 0.00 0.00 0.00 0.00 0.00 0.00 0.01 0.01 0.02 0.02 0.01 0.02 0.02 0.02 0.04 0.05 0.05 0.04 0.04 0.04 0.04 0.04 0.04
0.00 0.00 0.00 0.00 0.01 0.00 0.00 0.00 0.00 0.00 0.01 0.00 0.00 0.00 0.00 0.00 0.01 0.01 0.00 0.00 0.00 0.00 0.00 0.00 0.00 0.00 0.01 0.01 0.01 0.01 0.01 0.01 0.02 0.02 0.03 0.03 0.04 0.06 0.06 0.06 0.07 0.08 0.08 0.08
0.01 0.01 0.01 0.01 0.01 0.00 0.00 0.00 0.01 0.01 0.01 0.01 0.01 0.01 0.01 0.01 0.01 0.00 0.00 0.01 0.00 0.00 0.00 0.00 0.01 0.01 0.02 0.02 0.03 0.03 0.02 0.02 0.02 0.02 0.02 0.03 0.05 0.07 0.08 0.08 0.07 0.06 0.06 0.07
0.01 0.01 0.01 0.01 0.01 0.02 0.02 0.02 0.02 0.02 0.01 0.01 0.01 0.01 0.01 0.00 0.00 0.00 0.01 0.02 0.01 0.01 0.01 0.00 0.01 0.02 0.03 0.04 0.04 0.04 0.03 0.02 0.02 0.02 0.02 0.02 0.03 0.04 0.05 0.04 0.04 0.04 0.05 0.06
0.01 0.01 0.02 0.02 0.03 0.05 0.04 0.03 0.02 0.01 0.01 0.01 0.01 0.01 0.00 0.00 0.01 0.01 0.02 0.02 0.02 0.01 0.01 0.01 0.02 0.03 0.04 0.06 0.04 0.03 0.03 0.02 0.01 0.01 0.01 0.02 0.02 0.02 0.02 0.03 0.03 0.03 0.04 0.04
0.01 0.02 0.03 0.06 0.06 0.06 0.04 0.03 0.02 0.02 0.01 0.01 0.01 0.01 0.01 0.02 0.02 0.02 0.03 0.03 0.02 0.01 0.01 0.02 0.03 0.04 0.05 0.06 0.04 0.02 0.01 0.01 0.01 0.01 0.01 0.01 0.01 0.02 0.01 0.01 0.01 0.01 0.01 0.02
0.03 0.04 0.03 0.04 0.04 0.04 0.03 0.02 0.02 0.02 0.02 0.03 0.02 0.03 0.03 0.03 0.03 0.04 0.04 0.03 0.03 0.02 0.02 0.03 0.05 0.05 0.06 0.05 0.04 0.02 0.01 0.01 0.01 0.01 0.01 0.01 0.01 0.01 0.01 0.01 0.01 0.01 0.02 0.04
0.04 0.04 0.03 0.03 0.03 0.03 0.03 0.02 0.02 0.03 0.04 0.04 0.03 0.02 0.02 0.02 0.02 0.03 0.04 0.05 0.04 0.05 0.05 0.03 0.03 0.05 0.05 0.04 0.03 0.02 0.02 0.02 0.02 0.02 0.02 0.02 0.02 0.02 0.01 0.01 0.01 0.02 0.03 0.04
MSLP
1006.10 1006.61 1006.96 1007.17 1007.28 1007.33 1007.36 1007.39 1007.42 1007.43 1007.38 1007.24 1006.99 1006.62 1006.15 1005.64 1005.15 1004.74 1004.46 1004.35 1004.41 1004.65 1005.01 1005.48 1005.99 1006.53 1007.07 1007.60 1008.12 1008.63 1009.14 1009.64 1010.12 1010.57 1010.98 1011.35 1011.66 1011.92 1012.14 1012.35 1012.55 1012.76 1012.99 1013.24
1006.33 1006.73 1007.00 1007.16 1007.25 1007.34 1007.43 1007.56 1007.68 1007.76 1007.75 1007.59 1007.27 1006.78 1006.15 1005.46 1004.77 1004.18 1003.74 1003.51 1003.48 1003.66 1004.00 1004.46 1004.98 1005.54 1006.11 1006.67 1007.24 1007.79 1008.35 1008.89 1009.41 1009.90 1010.34 1010.72 1011.04 1011.30 1011.53 1011.73 1011.94 1012.18 1012.44 1012.74
1006.34 1006.64 1006.84 1006.96 1007.07 1007.21 1007.40 1007.63 1007.86 1008.02 1008.04 1007.87 1007.47 1006.85 1006.07 1005.19 1004.32 1003.55 1002.97 1002.61 1002.50 1002.61 1002.91 1003.35 1003.88 1004.46 1005.05 1005.65 1006.25 1006.86 1007.47 1008.07 1008.66 1009.19 1009.67 1010.08 1010.42 1010.69 1010.91 1011.11 1011.33 1011.58 1011.87 1012.21
1006.15 1006.36 1006.49 1006.60 1006.74 1006.97 1007.27 1007.62 1007.96 1008.20 1008.26 1008.07 1007.60 1006.87 1005.94 1004.89 1003.86 1002.94 1002.22 1001.74 1001.54 1001.59 1001.85 1002.26 1002.76 1003.33 1003.93 1004.55 1005.18 1005.84 1006.52 1007.19 1007.85 1008.46 1009.00 1009.46 1009.83 1010.12 1010.35 1010.56 1010.77 1011.02 1011.32 1011.69
1005.82 1005.95 1006.04 1006.15 1006.34 1006.65 1007.07 1007.54 1007.98 1008.30 1008.38 1008.18 1007.65 1006.83 1005.78 1004.61 1003.45 1002.41 1001.58 1001.02 1000.73 1000.71 1000.90 1001.26 1001.71 1002.23 1002.80 1003.41 1004.06 1004.74 1005.47 1006.22 1006.97 1007.68 1008.31 1008.85 1009.28 1009.61 1009.87 1010.08 1010.30 1010.54 1010.83 1011.19
1005.45 1005.51 1005.56 1005.69 1005.93 1006.32 1006.84 1007.41 1007.94 1008.30 1008.41 1008.19 1007.63 1006.74 1005.62 1004.37 1003.13 1002.02 1001.12 1000.50 1000.15 1000.06 1000.17 1000.43 1000.79 1001.23 1001.72 1002.27 1002.89 1003.59 1004.36 1005.18 1006.01 1006.83 1007.57 1008.22 1008.74 1009.14 1009.44 1009.68 1009.90 1010.13 1010.40 1010.74
1005.12 1005.12 1005.15 1005.29 1005.57 1006.02 1006.61 1007.24 1007.82 1008.22 1008.33 1008.10 1007.51 1006.60 1005.45 1004.18 1002.92 1001.80 1000.89 1000.24 999.84 999.68 999.70 999.84 1000.08 1000.38 1000.75 1001.20 1001.75 1002.41 1003.19 1004.06 1004.98 1005.90 1006.77 1007.53 1008.17 1008.66 1009.03 1009.31 1009.54 1009.76 1010.02 1010.32
1004.90 1004.86 1004.87 1005.01 1005.32 1005.80 1006.41 1007.07 1007.65 1008.04 1008.15 1007.90 1007.31 1006.40 1005.27 1004.04 1002.83 1001.75 1000.88 1000.24 999.82 999.59 999.51 999.53 999.61 999.74 999.95 1000.26 1000.69 1001.28 1002.03 1002.92 1003.90 1004.92 1005.90 1006.79 1007.54 1008.14 1008.60 1008.93 1009.19 1009.42 1009.65 1009.92
1004.81 1004.75 1004.75 1004.89 1005.20 1005.67 1006.27 1006.90 1007.45 1007.81 1007.88 1007.62 1007.03 1006.16 1005.10 1003.95 1002.84 1001.86 1001.06 1000.46 1000.05 999.78 999.60 999.48 999.39 999.34 999.36 999.50 999.79 1000.27 1000.97 1001.84 1002.85 1003.93 1005.00 1006.00 1006.87 1007.58 1008.12 1008.53 1008.83 1009.07 1009.29 1009.53
1004.86 1004.78 1004.78 1004.91 1005.20 1005.65 1006.20 1006.77 1007.25 1007.54 1007.57 1007.29 1006.72 1005.91 1004.94 1003.91 1002.94 1002.08 1001.39 1000.86 1000.47 1000.17 999.91 999.66 999.42 999.19 999.02 998.98 999.12 999.48 1000.09 1000.91 1001.92 1003.02 1004.16 1005.23 1006.19 1006.99 1007.62 1008.09 1008.44 1008.71 1008.94 1009.17
1004.99 1004.92 1004.93 1005.05 1005.32 1005.72 1006.20 1006.69 1007.08 1007.29 1007.26 1006.97 1006.43 1005.68 1004.82 1003.94 1003.11 1002.39 1001.81 1001.36 1001.00 1000.69 1000.37 1000.02 999.64 999.27 998.95 998.75 998.75 998.99 999.50 1000.26 1001.22 1002.31 1003.45 1004.56 1005.57 1006.43 1007.13 1007.66 1008.06 1008.37 1008.62 1008.86
1005.15 1005.12 1005.15 1005.27 1005.52 1005.87 1006.28 1006.67 1006.97 1007.11 1007.03 1006.72 1006.21 1005.54 1004.79 1004.03 1003.34 1002.75 1002.28 1001.90 1001.57 1001.25 1000.89 1000.47 1000.01 999.53 999.10 998.80 998.69 998.83 999.25 999.92 1000.82 1001.86 1002.97 1004.06 1005.07 1005.96 1006.69 1007.27 1007.72 1008.07 1008.36 1008.62
1005.31 1005.33 1005.40 1005.54 1005.77 1006.08 1006.42 1006.74 1006.96 1007.03 1006.91 1006.59 1006.11 1005.50 1004.84 1004.20 1003.61 1003.13 1002.73 1002.40 1002.10 1001.78 1001.40 1000.95 1000.44 999.92 999.44 999.09 998.92 999.00 999.34 999.94 1000.75 1001.71 1002.74 1003.78 1004.75 1005.62 1006.35 1006.95 1007.44 1007.84 1008.18 1008.49
1005.46 1005.54 1005.66 1005.82 1006.06 1006.34 1006.63 1006.89 1007.04 1007.06 1006.91 1006.59 1006.14 1005.59 1005.00 1004.43 1003.92 1003.49 1003.14 1002.83 1002.54 1002.21 1001.82 1001.37 1000.86 1000.35 999.89 999.54 999.38 999.43 999.73 1000.26 1000.99 1001.85 1002.78 1003.72 1004.61 1005.42 1006.13 1006.73 1007.24 1007.69 1008.08 1008.44
1005.61 1005.76 1005.92 1006.13 1006.37 1006.64 1006.90 1007.10 1007.22 1007.19 1007.03 1006.71 1006.28 1005.77 1005.23 1004.71 1004.23 1003.82 1003.47 1003.16 1002.85 1002.51 1002.12 1001.68 1001.21 1000.75 1000.35 1000.07 999.95 1000.03 1000.32 1000.81 1001.45 1002.21 1003.02 1003.84 1004.63 1005.35 1006.01 1006.59 1007.11 1007.59 1008.03 1008.44
1005.79 1006.01 1006.22 1006.46 1006.71 1006.96 1007.20 1007.37 1007.44 1007.40 1007.22 1006.91 1006.50 1006.01 1005.50 1004.99 1004.52 1004.10 1003.72 1003.36 1003.02 1002.66 1002.27 1001.86 1001.46 1001.08 1000.78 1000.59 1000.55 1000.69 1000.99 1001.46 1002.04 1002.70 1003.39 1004.09 1004.75 1005.38 1005.96 1006.50 1007.02 1007.51 1007.99 1008.45
1006.06 1006.32 1006.57 1006.82 1007.07 1007.31 1007.51 1007.65 1007.69 1007.62 1007.42 1007.12 1006.72 1006.25 1005.74 1005.23 1004.75 1004.29 1003.86 1003.46 1003.07 1002.68 1002.29 1001.92 1001.58 1001.30 1001.10 1001.03 1001.09 1001.30 1001.64 1002.10 1002.63 1003.21 1003.79 1004.37 1004.92 1005.45 1005.95 1006.44 1006.93 1007.43 1007.93 1008.42
1006.42 1006.71 1006.98 1007.23 1007.47 1007.67 1007.83 1007.92 1007.91 1007.81 1007.60 1007.29 1006.89 1006.43 1005.93 1005.41 1004.90 1004.40 1003.92 1003.46 1003.03 1002.61 1002.23 1001.89 1001.61 1001.42 1001.33 1001.37 1001.53 1001.81 1002.20 1002.66 1003.15 1003.66 1004.16 1004.63 1005.08 1005.51 1005.93 1006.37 1006.82 1007.30 1007.81 1008.31
1006.87 1007.18 1007.45 1007.68 1007.88 1008.03 1008.13 1008.16 1008.10 1007.95 1007.71 1007.39 1006.99 1006.53 1006.03 1005.51 1004.98 1004.45 1003.94 1003.44 1002.97 1002.54 1002.16 1001.84 1001.62 1001.50 1001.50 1001.62 1001.87 1002.21 1002.63 1003.09 1003.57 1004.03 1004.45 1004.84 1005.20 1005.55 1005.90 1006.28 1006.69 1007.14 1007.62 1008.12
1007.38 1007.69 1007.94 1008.15 1008.30 1008.39 1008.42 1008.37 1008.25 1008.05 1007.77 1007.42 1007.02 1006.56 1006.07 1005.56 1005.03 1004.50 1003.97 1003.46 1002.98 1002.54 1002.16 1001.87 1001.69 1001.62 1001.68 1001.87 1002.16 1002.54 1002.98 1003.44 1003.89 1004.31 1004.68 1005.01 1005.30 1005.58 1005.87 1006.19 1006.55 1006.95 1007.39 1007.85
1007.89 1008.20 1008.44 1008.61 1008.71 1008.74 1008.69 1008.57 1008.38 1008.13 1007.81 1007.44 1007.03 1006.58 1006.11 1005.62 1005.11 1004.60 1004.09 1003.59 1003.12 1002.70 1002.34 1002.07 1001.91 1001.88 1001.97 1002.18 1002.50 1002.89 1003.32 1003.76 1004.18 1004.56 1004.88 1005.16 1005.40 1005.62 1005.85 1006.11 1006.41 1006.76 1007.14 1007.55
1008.34 1008.65 1008.88 1009.02 1009.09 1009.06 1008.96 1008.78 1008.54 1008.24 1007.89 1007.50 1007.09 1006.66 1006.22 1005.76 1005.30 1004.83 1004.36 1003.90 1003.47 1003.08 1002.75 1002.51 1002.37 1002.35 1002.45 1002.65 1002.95 1003.32 1003.72 1004.13 1004.50 1004.83 1005.11 1005.33 1005.52 1005.69 1005.86 1006.07 1006.31 1006.59 1006.91 1007.26
1008.70 1009.01 1009.24 1009.38 1009.42 1009.38 1009.24 1009.03 1008.75 1008.42 1008.06 1007.67 1007.27 1006.87 1006.46 1006.06 1005.66 1005.25 1004.85 1004.46 1004.08 1003.74 1003.45 1003.23 1003.10 1003.08 1003.16 1003.33 1003.59 1003.90 1004.25 1004.58 1004.90 1005.17 1005.39 1005.56 1005.69 1005.81 1005.93 1006.07 1006.25 1006.46 1006.71 1006.99
1008.93 1009.26 1009.50 1009.65 1009.71 1009.67 1009.54 1009.32 1009.04 1008.72 1008.36 1007.99 1007.62 1007.26 1006.90 1006.56 1006.23 1005.90 1005.57 1005.25 1004.94 1004.66 1004.41 1004.22 1004.10 1004.06 1004.11 1004.23 1004.42 1004.66 1004.91 1005.17 1005.40 1005.59 1005.74 1005.85 1005.92 1005.98 1006.04 1006.13 1006.24 1006.38 1006.56 1006.77
1009.07 1009.40 1009.67 1009.85 1009.94 1009.93 1009.84 1009.66 1009.42 1009.13 1008.82 1008.49 1008.16 1007.85 1007.55 1007.28 1007.01 1006.76 1006.51 1006.26 1006.03 1005.80 1005.60 1005.43 1005.32 1005.26 1005.26 1005.31 1005.42 1005.56 1005.71 1005.86 1005.99 1006.10 1006.16 1006.19 1006.20 1006.19 1006.19 1006.21 1006.26 1006.34 1006.46 1006.60
1009.14 1009.48 1009.77 1009.98 1010.12 1010.17 1010.14 1010.03 1009.86 1009.64 1009.39 1009.12 1008.86 1008.61 1008.38 1008.17 1007.97 1007.79 1007.61 1007.43 1007.26 1007.08 1006.92 1006.77 1006.65 1006.56 1006.51 1006.49 1006.50 1006.54 1006.58 1006.62 1006.64 1006.64 1006.61 1006.56 1006.49 1006.42 1006.36 1006.32 1006.31 1006.33 1006.39 1006.48
Thickness
5828 5822 5817 5823 5826 5825 5822 5815 5811 5817 5826 5819 5815 5814 5818 5821 5819 5816 5814 5812 5809 5808 5810 5809 5806 5804 5800 5796 5792 5789 5786 5784 5782 5781 5779 5777 5776 5776 5776 5774 5771 5769 5767 5766
5814 5814 5827 5831 5827 5821 5818 5812 5812 5816 5823 5818 5815 5814 5822 5822 5820 5821 5817 5814 5812 5810 5809 5807 5806 5804 5801 5797 5794 5790 5787 5786 5784 5782 5780 5778 5777 5777 5776 5774 5771 5769 5767 5766
5809 5821 5829 5821 5816 5812 5813 5812 5813 5811 5816 5820 5813 5808 5814 5821 5824 5823 5822 5821 5819 5815 5811 5808 5806 5805 5803 5799 5796 5794 5790 5788 5785 5784 5782 5779 5777 5776 5775 5772 5771 5769 5768 5766
5814 5824 5819 5814 5813 5814 5807 5821 5818 5813 5807 5807 5811 5797 5811 5818 5817 5818 5820 5821 5820 5819 5816 5812 5809 5806 5804 5803 5801 5796 5793 5789 5787 5784 5782 5779 5776 5774 5773 5773 5772 5769 5768 5766
5808 5815 5811 5807 5813 5817 5816 5823 5818 5814 5809 5806 5811 5802 5812 5820 5812 5817 5821 5823 5823 5822 5819 5815 5813 5810 5808 5807 5803 5799 5795 5791 5788 5785 5782 5778 5777 5776 5775 5773 5770 5769 5769 5767
5812 5820 5818 5816 5821 5821 5818 5813 5810 5811 5810 5790 5803 5799 5803 5820 5818 5821 5824 5825 5824 5824 5821 5818 5816 5813 5810 5809 5806 5802 5796 5791 5789 5786 5783 5779 5777 5774 5772 5770 5769 5769 5769 5767
5795 5806 5815 5819 5808 5811 5810 5798 5784 5780 5783 5789 5808 5800 5807 5825 5829 5827 5826 5826 5826 5825 5822 5819 5815 5812 5809 5807 5805 5802 5797 5792 5790 5786 5783 5781 5777 5775 5772 5770 5769 5768 5768 5767
5782 5786 5804 5811 5808 5801 5804 5803 5783 5771 5779 5795 5799 5796 5814 5830 5832 5832 5831 5829 5827 5825 5823 5820 5818 5814 5811 5809 5806 5803 5798 5793 5791 5787 5784 5781 5779 5778 5776 5772 5771 5769 5769 5768
5786 5786 5805 5809 5815 5811 5799 5801 5812 5796 5793 5788 5798 5805 5816 5826 5825 5825 5825 5825 5824 5823 5822 5821 5819 5816 5813 5810 5807 5805 5800 5795 5792 5789 5785 5782 5780 5778 5776 5773 5771 5770 5768 5768
5793 5780 5793 5802 5806 5806 5810 5808 5799 5787 5769 5770 5786 5793 5802 5809 5815 5819 5820 5820 5821 5822 5822 5821 5820 5817 5814 5812 5809 5806 5802 5797 5794 5791 5787 5785 5781 5778 5776 5774 5771 5770 5768 5766
5792 5779 5781 5789 5788 5791 5793 5794 5795 5794 5791 5776 5772 5790 5819 5815 5816 5816 5818 5820 5820 5820 5820 5820 5819 5818 5816 5814 5810 5805 5801 5797 5794 5791 5788 5785 5782 5779 5776 5773 5771 5769 5767 5765
5783 5781 5773 5782 5796 5802 5798 5795 5792 5779 5775 5783 5781 5791 5822 5820 5820 5818 5818 5818 5818 5818 5819 5818 5817 5815 5813 5812 5809 5805 5801 5797 5794 5791 5788 5785 5782 5779 5776 5773 5770 5768 5765 5763
5773 5767 5756 5762 5772 5782 5784 5788 5791 5791 5783 5779 5775 5786 5817 5816 5815 5816 5814 5814 5813 5813 5813 5814 5812 5810 5809 5808 5806 5804 5800 5797 5794 5791 5787 5784 5780 5777 5773 5771 5768 5766 5763 5761
5768 5762 5759 5756 5768 5775 5772 5776 5782 5782 5775 5775 5780 5788 5801 5804 5805 5808 5809 5809 5809 5808 5807 5807 5806 5805 5804 5803 5802 5801 5799 5796 5792 5789 5785 5781 5778 5775 5772 5769 5766 5763 5761 5759
5761 5756 5758 5765 5771 5773 5770 5770 5774 5774 5778 5777 5784 5787 5794 5799 5802 5804 5804 5803 5802 5801 5802 5803 5801 5800 5800 5799 5798 5797 5795 5793 5790 5785 5781 5778 5776 5773 5770 5766 5763 5761 5758 5756
5752 5746 5750 5751 5761 5763 5761 5767 5769 5771 5776 5778 5781 5782 5797 5799 5799 5796 5796 5796 5794 5795 5797 5799 5798 5797 5796 5795 5794 5793 5791 5789 5786 5781 5778 5775 5772 5769 5766 5763 5760 5757 5754 5751
5741 5736 5735 5741 5752 5750 5747 5763 5766 5767 5774 5776 5772 5780 5790 5786 5785 5787 5789 5789 5789 5791 5792 5792 5794 5794 5793 5793 5791 5789 5787 5785 5781 5777 5774 5771 5768 5764 5762 5760 5756 5752 5749 5746
5727 5728 5732 5735 5732 5720 5753 5771 5769 5765 5767 5774 5774 5777 5779 5779 5782 5784 5784 5783 5782 5785 5786 5787 5789 5790 5790 5790 5788 5785 5783 5779 5776 5772 5769 5766 5763 5759 5757 5754 5750 5747 5745 5742
5729 5723 5724 5726 5723 5731 5745 5756 5759 5754 5755 5767 5766 5767 5771 5775 5776 5776 5778 5778 5777 5779 5781 5783 5785 5786 5785 5783 5781 5779 5776 5773 5770 5767 5764 5762 5758 5755 5752 5749 5745 5743 5740 5737
5720 5719 5718 5717 5712 5715 5736 5749 5756 5750 5742 5760 5760 5759 5762 5764 5762 5764 5769 5771 5772 5774 5776 5778 5780 5780 5777 5776 5774 5771 5769 5767 5764 5762 5760 5757 5753 5750 5747 5744 5741 5738 5736 5733
5705 5706 5708 5710 5710 5723 5737 5744 5744 5727 5736 5751 5754 5753 5754 5755 5757 5759 5762 5762 5764 5766 5769 5771 5771 5770 5769 5768 5767 5764 5762 5760 5760 5758 5754 5751 5748 5745 5742 5738 5735 5732 5730 5727
5701 5704 5703 5707 5703 5710 5730 5733 5729 5732 5740 5744 5746 5747 5747 5748 5750 5751 5752 5753 5756 5757 5759 5761 5760 5759 5760 5761 5759 5756 5755 5755 5754 5751 5747 5745 5743 5741 5738 5733 5730 5727 5724 5720
5698 5703 5707 5705 5707 5714 5723 5725 5728 5731 5731 5734 5737 5739 5740 5739 5740 5742 5743 5744 5746 5747 5749 5751 5751 5750 5751 5751 5750 5748 5746 5747 5746 5743 5740 5738 5736 5734 5732 5728 5724 5721 5718 5717
5691 5697 5697 5696 5703 5708 5712 5717 5721 5724 5725 5729 5731 5732 5732 5731 5731 5732 5733 5734 5735 5737 5738 5740 5740 5740 5739 5740 5741 5739 5738 5738 5737 5734 5732 5731 5729 5727 5725 5722 5720 5717 5714 5712
5685 5689 5689 5688 5695 5700 5704 5708 5712 5715 5718 5720 5722 5723 5723 5721 5720 5722 5722 5723 5724 5726 5728 5729 5728 5728 5728 5729 5729 5729 5729 5728 5727 5726 5724 5723 5722 5720 5717 5715 5712 5711 5708 5706
5683 5684 5684 5686 5690 5693 5694 5701 5706 5707 5708 5710 5712 5712 5713 5713 5712 5712 5712 5712 5713 5715 5717 5717 5718 5718 5718 5718 5718 5718 5718 5718 5717 5717 5716 5717 5716 5714 5711 5708 5705 5700 5699 5695